Location: Asarope
(8.2500°N, 4.4833°E)
Time: 00:26:29
(UTC+00:00)

Hubble Space Telescope - Visible Passes

Search period start: 01 August 2021 00:00
Search period end: 11 August 2021 00:00
Orbit: 535 x 539 km, 28.5° (Epoch: 31 July)

Date Brightness Start Highest point End Pass type
(mag) Time Alt. Az. Time Alt. Az. Time Alt. Az.
03 Aug 3.2 18:57:30 10° N 18:59:01 12° NNE 19:00:33 10° NE visible
03 Aug 4.0 20:36:32 10° NW 20:36:43 11° NW 20:36:43 11° NW visible
04 Aug 3.0 18:45:47 10° NNW 18:48:10 15° NNE 18:50:32 10° ENE visible
04 Aug 3.6 20:25:27 10° NW 20:26:19 16° NW 20:26:19 16° NW visible
05 Aug 2.7 18:34:20 10° NNW 18:37:16 19° NNE 18:40:13 10° ENE visible
05 Aug 3.2 20:14:26 10° WNW 20:15:57 22° WNW 20:15:57 22° WNW visible
06 Aug 2.4 18:22:59 10° NNW 18:26:22 24° NNE 18:29:44 10° E visible
06 Aug 2.6 20:03:31 10° WNW 20:05:39 28° W 20:05:39 28° W visible
07 Aug 2.3 19:52:40 10° WNW 19:55:23 32° WSW 19:55:23 32° WSW visible
08 Aug 2.2 19:41:58 10° W 19:45:11 29° SW 19:45:11 29° SW visible
09 Aug 2.6 19:31:24 10° W 19:34:35 21° SSW 19:35:01 21° SSW visible
10 Aug 3.0 19:21:05 10° WSW 19:23:36 16° SSW 19:24:53 14° S visible
